一网星座-0296星 (ONEWEB-0296 )

导读

ONEWEB-0296是英国OneWeb卫星星座的组网卫星,于北京时间2021年8月21日8时发射入轨。卫星由OneWeb与空客合资工厂制造,重约147.5公斤,配备Ku波段天线,运行于近地轨道。作为全球低轨宽带互联网星座的组成部分,它为偏远及基础设施薄弱地区提供可负担的宽带接入服务,设计寿命结束后将主动安全脱轨。

Basic Information
目录编号:
49085
目录名称:
ONEWEB-0296
国际标识:
2021-075L
轨道中心:
EARTH
卫星名称:
一网星座-0296星
卫星全名:
一网星座-0296星 (ONEWEB-0296 )
卫星状态:
在轨 (已飞行1801 天)
发射日期:
2021-08-21 UTC
国别 :
英国 (GB)
星等 :
--
Orbit Information
数据来源 国际轨道数据 AOE轨道数据
星历时间 2026-07-27T05:03:14+0800
1天前
查看轨道信息
2026-07-25T06:00:00+0800
3天前
查看轨道信息
半长轴 7591.856km 7591.836km
偏心率 0.0001841 0.0002372
轨道倾角 87.898° 87.900°
近地点辐角 87.508° 38.318°
升交点赤经 342.779° 343.165°
平近点角 272.626° 63.756°
近地点 1212.321km 1211.898km
远地点 1215.117km 1215.5km
周期 109.719分钟 109.719分钟
每日圈数 13.124443 13.124494
Detailed Information
平衡模式:
三轴稳定
覆盖范围:
全球
运营商:
一网卫星公司
运营商所在国:
英国
制造商(研发单位):
一网卫星公司
制造商所在国:
英国
使用方式:
暂无
Satellite Introduction
OneWeb卫星网络由648颗重约125公斤的微型卫星组成,运行在1200公里的轨道上。 每颗卫星都能够提供至少每秒8千兆位的吞吐量,以使用其高吞吐量的Ku频段有效载荷为家庭和移动平台提供互联网接入。该卫星仍在工作。
2D Orbit Map
3D Orbit Map
Orbit Altitude Analysis Chart
Orbit Inclination Analysis Chart
Orbit Comprehensive Analysis Chart
View Comprehensive Chart